Galesburg, IL

8:37 AM CDT on March 29, 2017 (GMT -0500)
Galesburg Municipal

Weather History for KGBG - December, 2011

Change the Weather History Date:

Thursday, December 15, 2011

  Actual Average Record
Temperature  
Mean Temperature 45 °F -  
Max Temperature 59 °F 35 °F 62 °F (1971)
Min Temperature 31 °F 20 °F -17 °F (1989)
Degree Days  
Heating Degree Days 20    
Moisture  
Dew Point 32 °F    
Average Humidity 72    
Maximum Humidity 85    
Minimum Humidity 60    
Precipitation  
Precipitation 0.00 in - - ()
Sea Level Pressure  
Sea Level Pressure 30.02 in    
Wind  
Wind Speed 16 mph (West)    
Max Wind Speed 29 mph    
Max Gust Speed 37 mph    
Visibility 10 miles    
Events      
Averages and records for this station are not official NWS values.
T = Trace of Precipitation, MM = Missing Value Source: NWS Daily Summary

Daily Weather History Graph

Daily Weather History Graph

Search for Another Location

Airport or City:

Trip Planner

Search our weather history database for the weather conditions in past years. The results will help you decide how hot, cold, wet, or windy it might be!

Date:

Astronomy

Dec. 15, 2011 Rise Set
Actual Time 7:19 AM CST 4:34 PM CST
Civil Twilight 6:48 AM CST 5:05 PM CST
Nautical Twilight 6:13 AM CST 5:40 PM CST
Astronomical Twilight 5:40 AM CST 6:13 PM CST
Moon 10:02 PM CST (12/15) 10:33 AM CST (12/15)
Length of Visible Light 10h 17m
Length of Day
9h 15m
Waning Gibbous, 74% of the Moon is Illuminated
Dec 15
Waning Gibbous
Dec 17
Last Quarter
Dec 24
New
Jan 1
First Quarter
Jan 9
Full

Hourly Weather History & Observations

Time (CST) Temp. Windchill Dew Point Humidity Pressure Visibility Wind Dir Wind Speed Gust Speed Precip Events Conditions
12:15 AM 59.0 °F - 54.5 °F 85% 29.70 in 10.0 mi WSW 16.1 mph 21.9 mph N/A   Light Drizzle
12:35 AM 58.1 °F - 52.2 °F 81% 29.70 in 10.0 mi SW 12.7 mph - N/A   Overcast
12:55 AM 57.4 °F - 51.4 °F 81% 29.71 in 10.0 mi WSW 11.5 mph - N/A   Mostly Cloudy
1:15 AM 56.5 °F - 49.5 °F 77% 29.70 in 10.0 mi WSW 12.7 mph 18.4 mph N/A   Mostly Cloudy
1:35 AM 55.2 °F - 48.7 °F 79% 29.71 in 10.0 mi WSW 11.5 mph - N/A   Mostly Cloudy
1:55 AM 54.3 °F - 48.4 °F 80% 29.72 in 10.0 mi WSW 10.4 mph - N/A   Overcast
2:15 AM 53.6 °F - 47.8 °F 81% 29.72 in 10.0 mi West 16.1 mph 19.6 mph N/A   Overcast
2:35 AM 53.6 °F - 46.4 °F 77% 29.73 in 10.0 mi WSW 15.0 mph 20.7 mph N/A   Overcast
2:55 AM 52.5 °F - 46.0 °F 79% 29.73 in 10.0 mi West 16.1 mph 19.6 mph N/A   Overcast
3:15 AM 50.5 °F - 45.0 °F 81% 29.74 in 10.0 mi West 15.0 mph - N/A   Overcast
3:35 AM 49.6 °F - 44.2 °F 82% 29.75 in 10.0 mi West 18.4 mph 24.2 mph N/A   Overcast
3:55 AM 47.3 °F - 41.0 °F 79% 29.77 in 10.0 mi West 19.6 mph 27.6 mph N/A   Overcast
4:15 AM 44.4 °F 36.4 °F 37.8 °F 77% 29.78 in 10.0 mi West 19.6 mph 33.4 mph N/A   Overcast
4:35 AM 43.2 °F 34.0 °F 36.9 °F 78% 29.79 in 10.0 mi West 23.0 mph 28.8 mph N/A   Overcast
4:55 AM 43.0 °F 34.8 °F 36.0 °F 76% 29.80 in 10.0 mi West 18.4 mph - N/A   Overcast
5:15 AM 43.0 °F 36.0 °F 35.4 °F 75% 29.81 in 10.0 mi West 13.8 mph 25.3 mph N/A   Overcast
5:35 AM 42.8 °F 34.8 °F 35.2 °F 75% 29.82 in 10.0 mi West 17.3 mph 24.2 mph N/A   Overcast
5:55 AM 42.8 °F 35.1 °F 35.6 °F 76% 29.83 in 10.0 mi West 16.1 mph 25.3 mph N/A   Overcast
6:15 AM 42.4 °F 33.3 °F 35.1 °F 75% 29.84 in 10.0 mi West 21.9 mph 26.5 mph N/A   Overcast
6:35 AM 42.4 °F 34.4 °F 35.2 °F 76% 29.86 in 10.0 mi West 17.3 mph 23.0 mph N/A   Overcast
6:55 AM 42.3 °F 33.6 °F 35.4 °F 77% 29.87 in 10.0 mi West 19.6 mph 24.2 mph N/A   Overcast
7:15 AM 42.8 °F 34.0 °F 35.6 °F 76% 29.88 in 10.0 mi West 20.7 mph - N/A   Overcast
7:35 AM 41.9 °F 34.0 °F 34.7 °F 76% 29.89 in 10.0 mi West 16.1 mph 23.0 mph N/A   Overcast
7:55 AM 41.5 °F 31.9 °F 34.3 °F 76% 29.90 in 10.0 mi West 23.0 mph 27.6 mph N/A   Overcast
8:15 AM 41.2 °F 31.9 °F 34.0 °F 76% 29.91 in 10.0 mi West 20.7 mph 28.8 mph N/A   Overcast
8:55 AM 40.6 °F 30.7 °F 32.9 °F 74% 29.94 in 10.0 mi West 23.0 mph 27.6 mph N/A   Overcast
9:15 AM 40.5 °F 30.7 °F 32.4 °F 73% 29.94 in 10.0 mi West 21.9 mph 31.1 mph N/A   Overcast
9:35 AM 40.1 °F 30.7 °F 32.0 °F 73% 29.96 in 10.0 mi West 19.6 mph 28.8 mph N/A   Overcast
9:55 AM 40.1 °F 30.2 °F 32.2 °F 73% 29.98 in 10.0 mi West 21.9 mph 26.5 mph N/A   Overcast
10:15 AM 39.6 °F 29.7 °F 31.8 °F 74% 29.99 in 10.0 mi West 20.7 mph 29.9 mph N/A   Overcast
10:35 AM 39.2 °F 28.7 °F 31.6 °F 74% 30.00 in 10.0 mi West 23.0 mph 31.1 mph N/A   Overcast
10:55 AM 39.2 °F 28.5 °F 31.1 °F 73% 30.01 in 10.0 mi West 24.2 mph 29.9 mph N/A   Overcast
11:15 AM 38.7 °F 27.5 °F 30.2 °F 72% 30.01 in 10.0 mi West 25.3 mph 32.2 mph N/A   Overcast
11:35 AM 37.4 °F 25.2 °F 29.8 °F 74% 30.02 in 10.0 mi West 28.8 mph 36.8 mph N/A   Overcast
11:55 AM 36.7 °F 24.9 °F 28.9 °F 74% 30.03 in 10.0 mi West 25.3 mph 33.4 mph N/A   Overcast
12:15 PM 36.5 °F 25.4 °F 26.8 °F 68% 30.03 in 10.0 mi West 21.9 mph 29.9 mph N/A   Overcast
12:35 PM 36.5 °F 25.7 °F 26.8 °F 68% 30.04 in 10.0 mi West 20.7 mph 29.9 mph N/A   Overcast
12:55 PM 36.7 °F 26.6 °F 26.1 °F 65% 30.05 in 10.0 mi West 18.4 mph 31.1 mph N/A   Overcast
1:15 PM 37.4 °F 26.9 °F 24.8 °F 60% 30.05 in 10.0 mi West 20.7 mph 31.1 mph N/A   Overcast
1:35 PM 37.4 °F 26.6 °F 25.9 °F 63% 30.06 in 10.0 mi West 21.9 mph 26.5 mph N/A   Overcast
1:55 PM 37.6 °F 26.9 °F 25.7 °F 62% 30.06 in 10.0 mi West 21.9 mph 28.8 mph N/A   Overcast
2:15 PM 37.4 °F 26.4 °F 25.5 °F 62% 30.08 in 10.0 mi West 23.0 mph 31.1 mph N/A   Overcast
2:35 PM 37.6 °F 26.3 °F 25.7 °F 62% 30.09 in 10.0 mi West 24.2 mph 31.1 mph N/A   Overcast
2:55 PM 37.4 °F 25.9 °F 24.6 °F 60% 30.11 in 10.0 mi West 25.3 mph 32.2 mph N/A   Overcast
3:15 PM 37.4 °F 27.5 °F 25.3 °F 62% 30.12 in 10.0 mi West 18.4 mph 25.3 mph N/A   Overcast
3:35 PM 37.4 °F 26.9 °F 24.8 °F 60% 30.12 in 10.0 mi West 20.7 mph 28.8 mph N/A   Overcast
3:55 PM 37.0 °F 27.4 °F 25.7 °F 64% 30.14 in 10.0 mi West 17.3 mph 26.5 mph N/A   Overcast
4:15 PM 36.9 °F 25.9 °F 25.0 °F 62% 30.15 in 10.0 mi West 21.9 mph 26.5 mph N/A   Overcast
4:35 PM 36.7 °F 25.7 °F 24.4 °F 61% 30.17 in 10.0 mi West 21.9 mph 29.9 mph N/A   Overcast
4:55 PM 36.5 °F 26.3 °F 24.6 °F 62% 30.18 in 10.0 mi West 18.4 mph 23.0 mph N/A   Overcast
5:15 PM 36.1 °F 26.9 °F 25.5 °F 65% 30.18 in 10.0 mi West 15.0 mph 19.6 mph N/A   Overcast
5:35 PM 36.1 °F 27.3 °F 25.3 °F 65% 30.19 in 10.0 mi West 13.8 mph - N/A   Overcast
5:55 PM 36.0 °F 29.6 °F 26.6 °F 69% 30.20 in 10.0 mi West 8.1 mph - N/A   Overcast
6:15 PM 36.0 °F 29.0 °F 27.0 °F 70% 30.21 in 10.0 mi West 9.2 mph - N/A   Overcast
6:35 PM 36.0 °F 28.5 °F 27.0 °F 70% 30.21 in 10.0 mi West 10.4 mph - N/A   Overcast
6:55 PM 35.8 °F 28.8 °F 26.6 °F 69% 30.22 in 10.0 mi West 9.2 mph - N/A   Overcast
7:15 PM 35.6 °F 28.6 °F 26.2 °F 69% 30.24 in 10.0 mi West 9.2 mph 17.3 mph N/A   Overcast
7:35 PM 35.1 °F 27.9 °F 25.3 °F 68% 30.24 in 10.0 mi West 9.2 mph - N/A   Overcast
7:55 PM 35.6 °F 28.6 °F 24.8 °F 65% 30.25 in 10.0 mi West 9.2 mph - N/A   Overcast
8:15 PM 34.0 °F 28.0 °F 26.6 °F 74% 30.26 in 10.0 mi West 6.9 mph - N/A   Overcast
8:35 PM 34.3 °F 29.2 °F 27.5 °F 76% 30.27 in 10.0 mi West 5.8 mph - N/A   Overcast
8:55 PM 34.9 °F 26.6 °F 26.1 °F 70% 30.28 in 10.0 mi West 11.5 mph - N/A   Overcast
9:15 PM 34.5 °F 25.3 °F 24.8 °F 68% 30.28 in 10.0 mi West 13.8 mph 18.4 mph N/A   Overcast
9:35 PM 34.3 °F 25.0 °F 25.0 °F 69% 30.30 in 10.0 mi West 13.8 mph 19.6 mph N/A   Overcast
9:55 PM 32.9 °F 25.9 °F 25.3 °F 74% 30.31 in 10.0 mi West 8.1 mph - N/A   Scattered Clouds
10:15 PM 32.2 °F 25.8 °F 25.2 °F 75% 30.31 in 10.0 mi West 6.9 mph - N/A   Scattered Clouds
10:35 PM 32.0 °F 25.6 °F 25.7 °F 78% 30.31 in 10.0 mi West 6.9 mph - N/A   Overcast
10:55 PM 32.0 °F 25.6 °F 24.8 °F 75% 30.32 in 10.0 mi West 6.9 mph - N/A   Scattered Clouds
11:15 PM 31.1 °F 24.5 °F 25.2 °F 79% 30.33 in 10.0 mi West 6.9 mph - N/A   Clear
11:35 PM 31.6 °F 24.4 °F 24.8 °F 76% 30.33 in 10.0 mi West 8.1 mph - N/A   Clear
11:55 PM 31.1 °F 23.1 °F 24.3 °F 76% 30.32 in 10.0 mi West 9.2 mph - N/A   Clear